USTRANSCOM 7743


LERT
Naval Station Rota
Rota, ES
LICZ
NAS Sigonella
Sigonella, IT

Activity Log

Date Flight Route Aircraft Duration
06/19/2019 CMB843 MGA2Z MGA UN851 MHN UM603 ORKUM M603 ALG M732 CAR M871 LIBRO LIBRO2N B752 2h 50m
03/07/2019 CMB843 MGA2Z MGA UN851 MHN UM603 ORKUM M603 ALG M732 CAR M871 LIBRO LIBRO2N B752 2h 27m

Route Details

Aircraft Information
Primary: Boeing 757-200SF
Backup: Not Available
Route Data
Distance: 1021nm
Sched. Duration: 2h 45m
Avg. Duration: 2h 38m (-7m)
Times Flown: 2
Recm'd Route: MGA2Z MGA UN851 MHN UM603 ORKUM M603 ALG M732 CAR M871 LIBRO LIBRO2N
Planned Altitude: 35,000ft
Origin Wx: LERT 260600Z 34007KT 310V010 CAVOK 15/12 Q1020 NOSIG
Dest. Wx: LICZ 260555Z 26004KT CAVOK 10/09 Q1018 RMK SKC VIS MIN 9999 WIND THR28 26006KT WIND THR10 27004KT A3007 BLU
Notes: USTRANSCOM CONTRACT FLIGHT

Financial History
Total Freight: 85,063lbs
Average Load: 42,532lbs/flt
Fuel Used: 42,015lbs
Avg. Fuel Used: 21,008lbs/flt
Fuel Expense: $33,612
Avg. Fuel Expense: $16,806
Avg. Fuel Cost: $0.80/lbs
Total Gross Income: $222,865
Pilot Pay: $378
Total Expenses: $24,173
Total Revenue: $163,845
Average Revenue: $111,432.53